Time,TemperatureF,DewpointF,PressureIn,WindDirection,WindDirectionDegrees,WindSpeedMPH,WindSpeedGustMPH,Humidity,HourlyPrecipIn,Conditions,Clouds,dailyrainin,SoftwareType,DateUTC
2013-03-06 00:01:00,37.3,34.2,30.05,ENE,72,6.0,10.1,88,0.00,n/a,n/a,-99.99,Henriksen +1-Wire,2013-03-06 05:01:00,
2013-03-06 00:02:00,37.3,34.3,30.05,ENE,76,6.5,10.1,88,0.00,n/a,n/a,-99.99,Henriksen +1-Wire,2013-03-06 05:02:00,
2013-03-06 00:03:00,37.2,34.3,30.05,East,91,6.2,10.1,89,0.00,n/a,n/a,-99.99,Henriksen +1-Wire,2013-03-06 05:03:00,
2013-03-06 00:05:00,37.2,34.3,30.05,East,88,5.7,10.1,89,0.00,n/a,n/a,-99.99,Henriksen +1-Wire,2013-03-06 05:05:00,
2013-03-06 00:10:00,37.0,34.2,30.05,ENE,78,6.0,11.1,89,0.00,n/a,n/a,-99.99,Henriksen +1-Wire,2013-03-06 05:10:00,
2013-03-06 00:16:00,36.8,34.1,30.05,ENE,67,6.3,11.1,89,0.00,n/a,n/a,-99.99,Henriksen +1-Wire,2013-03-06 05:16:00,
2013-03-06 00:21:00,36.7,34.0,30.05,ESE,108,4.7,11.0,90,0.00,n/a,n/a,-99.99,Henriksen +1-Wire,2013-03-06 05:21:00,
2013-03-06 00:26:00,36.6,34.0,30.05,ENE,73,5.7,11.0,90,0.00,n/a,n/a,-99.99,Henriksen +1-Wire,2013-03-06 05:26:00,
2013-03-06 00:32:00,36.4,33.9,30.05,NE,55,6.8,10.9,90,0.00,n/a,n/a,-99.99,Henriksen +1-Wire,2013-03-06 05:32:00,
2013-03-06 00:37:00,36.3,33.8,30.06,ENE,65,4.9,9.4,90,0.00,n/a,n/a,-99.99,Henriksen +1-Wire,2013-03-06 05:37:00,
2013-03-06 00:43:00,36.2,33.8,30.06,ENE,73,5.6,8.6,90,0.00,n/a,n/a,-99.99,Henriksen +1-Wire,2013-03-06 05:43:00,
2013-03-06 00:48:00,36.2,33.8,30.06,ENE,73,5.6,8.7,91,0.00,n/a,n/a,-99.99,Henriksen +1-Wire,2013-03-06 05:48:00,
2013-03-06 00:53:00,36.1,33.9,30.06,East,88,5.0,8.7,91,0.00,n/a,n/a,-99.99,Henriksen +1-Wire,2013-03-06 05:53:00,
2013-03-06 00:59:00,36.1,33.8,30.06,ENE,75,5.9,8.7,91,0.00,n/a,n/a,-99.99,Henriksen +1-Wire,2013-03-06 05:59:00,
2013-03-06 01:04:00,36.1,33.8,30.06,ENE,59,7.0,9.5,91,0.00,n/a,n/a,-99.99,Henriksen +1-Wire,2013-03-06 06:04:00,
2013-03-06 01:09:00,36.0,33.8,30.06,ENE,63,5.8,10.9,91,0.00,n/a,n/a,-99.99,Henriksen +1-Wire,2013-03-06 06:09:00,
2013-03-06 01:14:00,36.0,33.8,30.06,ENE,70,5.2,10.9,91,0.00,n/a,n/a,-99.99,Henriksen +1-Wire,2013-03-06 06:14:00,
2013-03-06 01:19:00,35.9,33.7,30.06,ENE,68,6.7,10.8,91,0.00,n/a,n/a,-99.99,Henriksen +1-Wire,2013-03-06 06:19:00,
2013-03-06 01:24:00,35.8,33.7,30.06,ENE,63,7.6,11.1,91,0.00,n/a,n/a,-99.99,Henriksen +1-Wire,2013-03-06 06:24:00,
2013-03-06 01:30:00,35.8,33.7,30.06,ENE,66,5.5,11.9,92,0.00,n/a,n/a,-99.99,Henriksen +1-Wire,2013-03-06 06:30:00,
2013-03-06 01:35:00,35.7,33.7,30.05,ENE,59,6.7,11.1,92,0.00,n/a,n/a,-99.99,Henriksen +1-Wire,2013-03-06 06:35:00,
2013-03-06 01:40:00,35.6,33.8,30.05,ENE,61,8.3,11.4,92,0.00,n/a,n/a,-99.99,Henriksen +1-Wire,2013-03-06 06:40:00,
2013-03-06 01:46:00,35.6,33.9,30.05,ENE,65,5.8,11.4,93,0.00,n/a,n/a,-99.99,Henriksen +1-Wire,2013-03-06 06:46:00,
2013-03-06 01:51:00,35.5,33.9,30.05,ENE,58,6.4,10.3,93,0.00,n/a,n/a,-99.99,Henriksen +1-Wire,2013-03-06 06:51:00,
2013-03-06 01:56:00,35.6,33.9,30.05,ENE,70,6.2,11.1,93,0.00,n/a,n/a,-99.99,Henriksen +1-Wire,2013-03-06 06:56:00,
2013-03-06 02:01:00,35.5,33.9,30.05,East,92,5.2,11.1,93,0.00,n/a,n/a,-99.99,Henriksen +1-Wire,2013-03-06 07:01:00,
2013-03-06 02:06:00,35.5,33.8,30.05,ENE,63,6.1,9.5,93,0.00,n/a,n/a,-99.99,Henriksen +1-Wire,2013-03-06 07:06:00,
2013-03-06 02:11:00,35.4,33.8,30.05,ENE,70,6.6,10.9,93,0.00,n/a,n/a,-99.99,Henriksen +1-Wire,2013-03-06 07:11:00,
2013-03-06 02:16:00,35.5,33.9,30.05,ENE,69,6.9,11.0,93,0.00,n/a,n/a,-99.99,Henriksen +1-Wire,2013-03-06 07:16:00,
2013-03-06 02:21:00,35.5,33.9,30.05,NE,53,5.8,11.4,93,0.00,n/a,n/a,-99.99,Henriksen +1-Wire,2013-03-06 07:21:00,
2013-03-06 02:26:00,35.5,33.9,30.05,ENE,63,7.5,11.8,93,0.00,n/a,n/a,-99.99,Henriksen +1-Wire,2013-03-06 07:26:00,
2013-03-06 02:31:00,35.5,33.8,30.06,ENE,69,6.0,11.8,93,0.00,n/a,n/a,-99.99,Henriksen +1-Wire,2013-03-06 07:31:00,
2013-03-06 02:36:00,35.4,33.8,30.06,ENE,63,6.8,11.1,93,0.00,n/a,n/a,-99.99,Henriksen +1-Wire,2013-03-06 07:36:00,
2013-03-06 02:41:00,35.3,33.8,30.05,ENE,70,6.6,11.1,94,0.00,n/a,n/a,-99.99,Henriksen +1-Wire,2013-03-06 07:41:00,
2013-03-06 02:46:00,35.1,33.7,30.05,ENE,66,6.2,11.8,94,0.00,n/a,n/a,-99.99,Henriksen +1-Wire,2013-03-06 07:46:00,
2013-03-06 02:51:00,35.0,33.7,30.05,ENE,57,8.2,13.9,95,0.00,n/a,n/a,-99.99,Henriksen +1-Wire,2013-03-06 07:51:00,
2013-03-06 02:56:00,34.8,33.8,30.05,ENE,68,6.5,13.9,95,0.00,n/a,n/a,-99.99,Henriksen +1-Wire,2013-03-06 07:56:00,
2013-03-06 03:01:00,34.7,33.8,30.05,ENE,70,7.0,11.9,96,0.00,n/a,n/a,-99.99,Henriksen +1-Wire,2013-03-06 08:01:00,
2013-03-06 03:07:00,34.7,33.9,30.05,ENE,70,8.9,12.0,96,0.00,n/a,n/a,-99.99,Henriksen +1-Wire,2013-03-06 08:07:00,
2013-03-06 03:12:00,34.7,34.0,30.05,ENE,58,8.6,15.0,97,0.00,n/a,n/a,-99.99,Henriksen +1-Wire,2013-03-06 08:12:00,
2013-03-06 03:17:00,34.7,34.0,30.04,ENE,62,6.4,15.0,97,0.00,n/a,n/a,-99.99,Henriksen +1-Wire,2013-03-06 08:17:00,
2013-03-06 03:22:00,34.7,34.1,30.05,ENE,77,7.0,12.0,97,0.00,n/a,n/a,-99.99,Henriksen +1-Wire,2013-03-06 08:22:00,
2013-03-06 03:28:00,34.7,34.1,30.05,ENE,73,6.8,11.8,97,0.00,n/a,n/a,-99.99,Henriksen +1-Wire,2013-03-06 08:28:00,
2013-03-06 03:33:00,34.7,34.2,30.05,ENE,76,6.0,11.8,97,0.00,n/a,n/a,-99.99,Henriksen +1-Wire,2013-03-06 08:33:00,
2013-03-06 03:38:00,34.7,34.2,30.05,ENE,72,7.0,15.1,98,0.00,n/a,n/a,-99.99,Henriksen +1-Wire,2013-03-06 08:38:00,
2013-03-06 03:43:00,34.7,34.2,30.05,ENE,75,5.5,15.1,98,0.00,n/a,n/a,-99.99,Henriksen +1-Wire,2013-03-06 08:43:00,
2013-03-06 03:48:00,34.6,34.2,30.05,ENE,70,7.7,13.4,98,0.00,n/a,n/a,-99.99,Henriksen +1-Wire,2013-03-06 08:48:00,
2013-03-06 03:53:00,34.6,34.2,30.05,ENE,76,5.7,13.4,98,0.00,n/a,n/a,-99.99,Henriksen +1-Wire,2013-03-06 08:53:00,
2013-03-06 03:58:00,34.5,34.2,30.05,ENE,73,7.1,13.4,98,0.00,n/a,n/a,-99.99,Henriksen +1-Wire,2013-03-06 08:58:00,
2013-03-06 04:03:00,34.5,34.3,30.05,ENE,65,8.7,13.4,99,0.00,n/a,n/a,-99.99,Henriksen +1-Wire,2013-03-06 09:03:00,
2013-03-06 04:08:00,34.5,34.4,30.05,ENE,71,7.5,12.6,99,0.00,n/a,n/a,-99.99,Henriksen +1-Wire,2013-03-06 09:08:00,
2013-03-06 04:13:00,34.6,34.4,30.06,ENE,77,7.1,12.6,99,0.00,n/a,n/a,-99.99,Henriksen +1-Wire,2013-03-06 09:13:00,
2013-03-06 04:19:00,34.5,34.4,30.06,ENE,78,7.1,12.6,99,0.00,n/a,n/a,-99.99,Henriksen +1-Wire,2013-03-06 09:19:00,
2013-03-06 04:25:00,34.5,34.4,30.06,ENE,65,6.1,12.2,99,0.00,n/a,n/a,-99.99,Henriksen +1-Wire,2013-03-06 09:25:00,
2013-03-06 04:30:00,34.4,34.3,30.06,ENE,64,6.0,14.0,99,0.01,n/a,n/a,-99.99,Henriksen +1-Wire,2013-03-06 09:30:00,
2013-03-06 04:36:00,34.4,34.4,30.07,ENE,71,7.2,14.0,99,0.01,n/a,n/a,-99.99,Henriksen +1-Wire,2013-03-06 09:36:00,
2013-03-06 04:41:00,34.3,34.3,30.07,ENE,71,5.4,13.3,99,0.01,n/a,n/a,-99.99,Henriksen +1-Wire,2013-03-06 09:41:00,
2013-03-06 04:46:00,34.3,34.3,30.07,ENE,69,5.6,13.3,100,0.01,n/a,n/a,-99.99,Henriksen +1-Wire,2013-03-06 09:46:00,
2013-03-06 04:51:00,34.5,34.4,30.07,ENE,69,5.0,10.3,100,0.01,n/a,n/a,-99.99,Henriksen +1-Wire,2013-03-06 09:51:00,
2013-03-06 04:57:00,34.6,34.6,30.07,East,79,3.6,9.4,100,0.01,n/a,n/a,-99.99,Henriksen +1-Wire,2013-03-06 09:57:00,
2013-03-06 05:02:00,34.8,34.8,30.07,ENE,78,6.2,9.7,100,0.01,n/a,n/a,-99.99,Henriksen +1-Wire,2013-03-06 10:02:00,
2013-03-06 05:07:00,35.2,35.2,30.07,East,89,6.2,19.1,100,0.01,n/a,n/a,-99.99,Henriksen +1-Wire,2013-03-06 10:07:00,
2013-03-06 05:12:00,35.6,35.5,30.08,East,93,8.4,20.0,99,0.02,n/a,n/a,-99.99,Henriksen +1-Wire,2013-03-06 10:12:00,
2013-03-06 05:17:00,35.9,35.5,30.08,East,97,6.5,20.0,98,0.02,n/a,n/a,-99.99,Henriksen +1-Wire,2013-03-06 10:17:00,
2013-03-06 05:22:00,36.2,35.3,30.08,East,96,5.1,15.6,96,0.02,n/a,n/a,-99.99,Henriksen +1-Wire,2013-03-06 10:22:00,
2013-03-06 05:27:00,36.4,35.2,30.08,East,95,7.1,14.7,95,0.02,n/a,n/a,-99.99,Henriksen +1-Wire,2013-03-06 10:27:00,
2013-03-06 05:32:00,36.4,35.1,30.08,ENE,77,8.4,16.3,94,0.01,n/a,n/a,-99.99,Henriksen +1-Wire,2013-03-06 10:32:00,
2013-03-06 05:37:00,36.1,34.9,30.08,East,86,8.5,16.3,95,0.01,n/a,n/a,-99.99,Henriksen +1-Wire,2013-03-06 10:37:00,
2013-03-06 05:42:00,35.9,35.0,30.08,East,86,7.6,15.0,96,0.01,n/a,n/a,-99.99,Henriksen +1-Wire,2013-03-06 10:42:00,
2013-03-06 05:47:00,35.7,35.0,30.08,East,81,6.2,15.3,97,0.01,n/a,n/a,-99.99,Henriksen +1-Wire,2013-03-06 10:47:00,
2013-03-06 05:52:00,35.7,35.2,30.08,East,80,7.2,15.3,98,0.01,n/a,n/a,-99.99,Henriksen +1-Wire,2013-03-06 10:52:00,
2013-03-06 05:57:00,35.7,35.4,30.08,East,92,7.1,15.3,98,0.02,n/a,n/a,-99.99,Henriksen +1-Wire,2013-03-06 10:57:00,
2013-03-06 06:02:00,35.6,35.3,30.09,ENE,73,9.0,20.0,98,0.02,n/a,n/a,-99.99,Henriksen +1-Wire,2013-03-06 11:02:00,
2013-03-06 06:07:00,35.5,35.2,30.09,ENE,78,7.6,20.0,98,0.02,n/a,n/a,-99.99,Henriksen +1-Wire,2013-03-06 11:07:00,
2013-03-06 06:12:00,35.5,35.2,30.09,East,89,8.1,17.3,98,0.01,n/a,n/a,-99.99,Henriksen +1-Wire,2013-03-06 11:12:00,
2013-03-06 06:17:00,35.6,35.2,30.09,East,83,9.1,17.3,98,0.01,n/a,n/a,-99.99,Henriksen +1-Wire,2013-03-06 11:17:00,
2013-03-06 06:22:00,35.7,35.2,30.09,East,92,8.5,17.4,98,0.01,n/a,n/a,-99.99,Henriksen +1-Wire,2013-03-06 11:22:00,
2013-03-06 06:27:00,35.7,35.2,30.09,East,86,7.6,17.4,97,0.01,n/a,n/a,-99.99,Henriksen +1-Wire,2013-03-06 11:27:00,
2013-03-06 06:32:00,35.7,35.2,30.09,ENE,73,7.6,17.3,97,0.01,n/a,n/a,-99.99,Henriksen +1-Wire,2013-03-06 11:32:00,
2013-03-06 06:37:00,35.7,35.2,30.09,ENE,77,7.3,15.0,97,0.01,n/a,n/a,-99.99,Henriksen +1-Wire,2013-03-06 11:37:00,
2013-03-06 06:42:00,35.8,35.2,30.09,East,91,8.0,15.0,97,0.01,n/a,n/a,-99.99,Henriksen +1-Wire,2013-03-06 11:42:00,
2013-03-06 06:47:00,35.8,35.2,30.09,East,88,9.8,19.6,97,0.01,n/a,n/a,-99.99,Henriksen +1-Wire,2013-03-06 11:47:00,
2013-03-06 06:52:00,35.7,35.0,30.10,ENE,78,5.9,19.6,97,0.01,n/a,n/a,-99.99,Henriksen +1-Wire,2013-03-06 11:52:00,
2013-03-06 06:58:00,35.7,35.0,30.10,East,87,9.4,15.0,97,0.00,n/a,n/a,-99.99,Henriksen +1-Wire,2013-03-06 11:58:00,
2013-03-06 07:03:00,35.9,35.1,30.10,East,84,8.0,15.0,97,0.00,n/a,n/a,-99.99,Henriksen +1-Wire,2013-03-06 12:03:00,
2013-03-06 07:09:00,36.0,34.9,30.10,East,81,7.4,15.9,95,0.00,n/a,n/a,-99.99,Henriksen +1-Wire,2013-03-06 12:09:00,
2013-03-06 07:14:00,35.9,34.6,30.11,East,82,7.5,15.9,94,0.00,n/a,n/a,-99.99,Henriksen +1-Wire,2013-03-06 12:14:00,
2013-03-06 07:19:00,35.8,34.4,30.11,East,83,9.4,16.6,94,0.00,n/a,n/a,-99.99,Henriksen +1-Wire,2013-03-06 12:19:00,
2013-03-06 07:24:00,35.7,34.4,30.11,ENE,78,8.9,16.6,94,0.00,n/a,n/a,-99.99,Henriksen +1-Wire,2013-03-06 12:24:00,
2013-03-06 07:29:00,35.6,34.3,30.11,ENE,77,11.2,20.4,94,0.00,n/a,n/a,-99.99,Henriksen +1-Wire,2013-03-06 12:29:00,
2013-03-06 07:34:00,35.5,34.1,30.11,East,89,8.2,20.4,94,0.00,n/a,n/a,-99.99,Henriksen +1-Wire,2013-03-06 12:34:00,
2013-03-06 07:39:00,35.4,34.0,30.12,East,88,8.4,16.7,94,0.00,n/a,n/a,-99.99,Henriksen +1-Wire,2013-03-06 12:39:00,
2013-03-06 07:44:00,35.3,33.9,30.12,ENE,70,7.1,16.7,94,0.00,n/a,n/a,-99.99,Henriksen +1-Wire,2013-03-06 12:44:00,
2013-03-06 07:49:00,35.3,34.0,30.12,ENE,78,7.2,14.9,95,0.00,n/a,n/a,-99.99,Henriksen +1-Wire,2013-03-06 12:49:00,
2013-03-06 07:54:00,35.4,34.1,30.12,East,82,9.1,15.4,95,0.00,n/a,n/a,-99.99,Henriksen +1-Wire,2013-03-06 12:54:00,
2013-03-06 07:59:00,35.4,34.1,30.13,ENE,76,9.6,15.4,94,0.00,n/a,n/a,-99.99,Henriksen +1-Wire,2013-03-06 12:59:00,
2013-03-06 08:05:00,35.3,33.9,30.13,ENE,77,8.3,15.0,94,0.00,n/a,n/a,-99.99,Henriksen +1-Wire,2013-03-06 13:05:00,
2013-03-06 08:10:00,34.7,33.5,30.13,East,83,7.4,13.5,95,0.01,n/a,n/a,-99.99,Henriksen +1-Wire,2013-03-06 13:10:00,
2013-03-06 08:15:00,34.2,33.2,30.14,East,86,6.3,12.7,96,0.01,n/a,n/a,-99.99,Henriksen +1-Wire,2013-03-06 13:15:00,
2013-03-06 08:20:00,34.0,33.4,30.14,East,85,5.5,12.1,97,0.01,n/a,n/a,-99.99,Henriksen +1-Wire,2013-03-06 13:20:00,
2013-03-06 08:26:00,34.0,33.7,30.14,East,87,5.3,11.4,98,0.02,n/a,n/a,-99.99,Henriksen +1-Wire,2013-03-06 13:26:00,
2013-03-06 08:31:00,34.1,33.9,30.14,East,79,6.4,14.2,98,0.02,n/a,n/a,-99.99,Henriksen +1-Wire,2013-03-06 13:31:00,
2013-03-06 08:36:00,34.3,34.1,30.14,East,79,6.8,14.2,98,0.03,n/a,n/a,-99.99,Henriksen +1-Wire,2013-03-06 13:36:00,
2013-03-06 08:41:00,34.3,34.1,30.14,ENE,65,9.3,12.6,98,0.03,n/a,n/a,-99.99,Henriksen +1-Wire,2013-03-06 13:41:00,
2013-03-06 08:46:00,34.1,33.8,30.14,ENE,76,7.4,13.1,98,0.04,n/a,n/a,-99.99,Henriksen +1-Wire,2013-03-06 13:46:00,
2013-03-06 08:51:00,34.0,33.8,30.14,East,79,7.7,13.1,99,0.04,n/a,n/a,-99.99,Henriksen +1-Wire,2013-03-06 13:51:00,
2013-03-06 08:57:00,34.1,33.9,30.14,ENE,78,6.5,12.6,99,0.04,n/a,n/a,-99.99,Henriksen +1-Wire,2013-03-06 13:57:00,
2013-03-06 09:02:00,34.1,34.0,30.14,ENE,71,5.7,13.5,99,0.04,n/a,n/a,-99.99,Henriksen +1-Wire,2013-03-06 14:02:00,
2013-03-06 09:08:00,33.9,33.8,30.14,ENE,74,6.4,13.5,99,0.05,n/a,n/a,-99.99,Henriksen +1-Wire,2013-03-06 14:08:00,
2013-03-06 09:13:00,33.9,33.9,30.14,ENE,72,6.2,17.3,99,0.04,n/a,n/a,-99.99,Henriksen +1-Wire,2013-03-06 14:13:00,
2013-03-06 09:18:00,34.1,34.0,30.14,ENE,76,6.8,17.3,99,0.04,n/a,n/a,-99.99,Henriksen +1-Wire,2013-03-06 14:18:00,
2013-03-06 09:23:00,34.3,34.1,30.13,East,85,7.8,14.2,99,0.04,n/a,n/a,-99.99,Henriksen +1-Wire,2013-03-06 14:23:00,
2013-03-06 09:28:00,34.5,34.1,30.13,ENE,73,9.0,15.4,98,0.03,n/a,n/a,-99.99,Henriksen +1-Wire,2013-03-06 14:28:00,
2013-03-06 09:33:00,34.6,34.0,30.13,ENE,78,10.2,15.4,97,0.03,n/a,n/a,-99.99,Henriksen +1-Wire,2013-03-06 14:33:00,
2013-03-06 09:43:00,34.7,33.8,30.13,East,80,8.2,15.0,96,0.02,n/a,n/a,-99.99,Henriksen +1-Wire,2013-03-06 14:43:00,
2013-03-06 09:48:00,34.7,33.7,30.13,East,79,7.4,15.0,95,0.02,n/a,n/a,-99.99,Henriksen +1-Wire,2013-03-06 14:48:00,
2013-03-06 09:53:00,34.8,33.5,30.13,ENE,66,8.4,15.8,95,0.01,n/a,n/a,-99.99,Henriksen +1-Wire,2013-03-06 14:53:00,
2013-03-06 09:58:00,34.8,33.3,30.13,ENE,78,10.1,15.8,94,0.01,n/a,n/a,-99.99,Henriksen +1-Wire,2013-03-06 14:58:00,
2013-03-06 10:03:00,34.9,33.2,30.13,ENE,73,9.6,17.8,93,0.01,n/a,n/a,-99.99,Henriksen +1-Wire,2013-03-06 15:03:00,
2013-03-06 10:08:00,35.1,33.0,30.13,ENE,70,7.0,17.8,92,0.01,n/a,n/a,-99.99,Henriksen +1-Wire,2013-03-06 15:08:00,
2013-03-06 10:14:00,35.1,32.8,30.13,ENE,63,9.1,17.0,91,0.00,n/a,n/a,-99.99,Henriksen +1-Wire,2013-03-06 15:14:00,
2013-03-06 10:19:00,35.1,32.7,30.13,ENE,74,9.7,16.9,90,0.00,n/a,n/a,-99.99,Henriksen +1-Wire,2013-03-06 15:19:00,
2013-03-06 10:25:00,35.1,32.5,30.12,ENE,75,8.0,16.2,90,0.00,n/a,n/a,-99.99,Henriksen +1-Wire,2013-03-06 15:25:00,
2013-03-06 10:30:00,35.0,32.3,30.13,ENE,72,7.8,15.7,89,0.00,n/a,n/a,-99.99,Henriksen +1-Wire,2013-03-06 15:30:00,
2013-03-06 10:36:00,34.9,32.2,30.13,East,80,6.5,15.7,89,0.00,n/a,n/a,-99.99,Henriksen +1-Wire,2013-03-06 15:36:00,
2013-03-06 10:41:00,34.8,32.2,30.13,East,80,8.1,13.4,90,0.00,n/a,n/a,-99.99,Henriksen +1-Wire,2013-03-06 15:41:00,
2013-03-06 10:46:00,34.8,32.3,30.13,ENE,69,6.1,13.4,90,0.00,n/a,n/a,-99.99,Henriksen +1-Wire,2013-03-06 15:46:00,
2013-03-06 10:51:00,34.8,32.3,30.14,ENE,78,8.2,16.7,90,0.00,n/a,n/a,-99.99,Henriksen +1-Wire,2013-03-06 15:51:00,
2013-03-06 10:56:00,34.8,32.2,30.14,ENE,68,8.7,16.7,90,0.00,n/a,n/a,-99.99,Henriksen +1-Wire,2013-03-06 15:56:00,
2013-03-06 11:02:00,34.8,32.2,30.14,ENE,77,8.4,15.9,89,0.00,n/a,n/a,-99.99,Henriksen +1-Wire,2013-03-06 16:02:00,
2013-03-06 11:08:00,34.6,32.0,30.13,ENE,78,9.4,13.8,90,0.00,n/a,n/a,-99.99,Henriksen +1-Wire,2013-03-06 16:08:00,
2013-03-06 11:13:00,34.4,32.1,30.13,ENE,68,10.7,15.0,91,0.00,n/a,n/a,-99.99,Henriksen +1-Wire,2013-03-06 16:13:00,
2013-03-06 11:18:00,34.4,32.6,30.13,ENE,71,9.9,16.5,92,0.00,n/a,n/a,-99.99,Henriksen +1-Wire,2013-03-06 16:18:00,
2013-03-06 11:23:00,34.6,33.0,30.13,ENE,75,6.7,16.5,93,0.00,n/a,n/a,-99.99,Henriksen +1-Wire,2013-03-06 16:23:00,
2013-03-06 11:28:00,34.7,33.2,30.13,ENE,74,8.1,15.0,94,0.00,n/a,n/a,-99.99,Henriksen +1-Wire,2013-03-06 16:28:00,
2013-03-06 11:33:00,34.7,33.3,30.13,ENE,71,9.1,15.0,94,0.00,n/a,n/a,-99.99,Henriksen +1-Wire,2013-03-06 16:33:00,
2013-03-06 11:38:00,34.7,33.4,30.13,ENE,73,8.1,18.7,95,0.00,n/a,n/a,-99.99,Henriksen +1-Wire,2013-03-06 16:38:00,
2013-03-06 11:44:00,34.7,33.5,30.13,ENE,63,9.3,18.7,95,0.01,n/a,n/a,-99.99,Henriksen +1-Wire,2013-03-06 16:44:00,
2013-03-06 11:49:00,34.6,33.5,30.12,ENE,67,8.2,17.0,95,0.01,n/a,n/a,-99.99,Henriksen +1-Wire,2013-03-06 16:49:00,
2013-03-06 11:54:00,34.6,33.6,30.12,ENE,75,7.6,17.0,96,0.01,n/a,n/a,-99.99,Henriksen +1-Wire,2013-03-06 16:54:00,
2013-03-06 11:59:00,34.6,33.7,30.12,ENE,77,9.7,19.0,96,0.01,n/a,n/a,-99.99,Henriksen +1-Wire,2013-03-06 16:59:00,
2013-03-06 12:04:00,34.5,33.7,30.12,ENE,70,7.9,19.0,96,0.01,n/a,n/a,-99.99,Henriksen +1-Wire,2013-03-06 17:04:00,
2013-03-06 12:09:00,34.4,33.7,30.12,ENE,67,9.3,16.4,97,0.01,n/a,n/a,-99.99,Henriksen +1-Wire,2013-03-06 17:09:00,
2013-03-06 12:14:00,34.3,33.6,30.11,ENE,75,7.4,16.5,97,0.01,n/a,n/a,-99.99,Henriksen +1-Wire,2013-03-06 17:14:00,
2013-03-06 12:19:00,34.3,33.7,30.11,ENE,75,9.8,19.9,97,0.01,n/a,n/a,-99.99,Henriksen +1-Wire,2013-03-06 17:19:00,
2013-03-06 12:24:00,34.3,33.7,30.11,ENE,68,8.0,19.9,97,0.01,n/a,n/a,-99.99,Henriksen +1-Wire,2013-03-06 17:24:00,
2013-03-06 12:30:00,34.6,34.0,30.11,ENE,73,7.1,16.8,97,0.01,n/a,n/a,-99.99,Henriksen +1-Wire,2013-03-06 17:30:00,
2013-03-06 12:36:00,34.7,34.1,30.12,ENE,77,8.6,16.8,97,0.01,n/a,n/a,-99.99,Henriksen +1-Wire,2013-03-06 17:36:00,
2013-03-06 12:41:00,34.5,34.0,30.11,ENE,68,8.8,13.7,97,0.01,n/a,n/a,-99.99,Henriksen +1-Wire,2013-03-06 17:41:00,
2013-03-06 12:46:00,34.5,34.0,30.11,ENE,68,7.2,14.0,98,0.00,n/a,n/a,-99.99,Henriksen +1-Wire,2013-03-06 17:46:00,
2013-03-06 12:52:00,34.7,34.3,30.11,East,86,6.4,14.0,98,0.00,n/a,n/a,-99.99,Henriksen +1-Wire,2013-03-06 17:52:00,
2013-03-06 12:57:00,34.8,34.5,30.11,East,79,9.8,15.0,98,0.00,n/a,n/a,-99.99,Henriksen +1-Wire,2013-03-06 17:57:00,
2013-03-06 13:03:00,34.7,34.4,30.11,ENE,68,10.0,17.1,98,0.00,n/a,n/a,-99.99,Henriksen +1-Wire,2013-03-06 18:03:00,
2013-03-06 13:08:00,34.6,34.3,30.11,ENE,73,9.5,17.1,98,0.01,n/a,n/a,-99.99,Henriksen +1-Wire,2013-03-06 18:08:00,
2013-03-06 13:13:00,34.6,34.2,30.11,ENE,68,10.3,14.7,98,0.01,n/a,n/a,-99.99,Henriksen +1-Wire,2013-03-06 18:13:00,
2013-03-06 13:18:00,34.6,34.2,30.10,ENE,67,7.3,14.7,98,0.01,n/a,n/a,-99.99,Henriksen +1-Wire,2013-03-06 18:18:00,
2013-03-06 13:24:00,34.8,34.3,30.11,East,96,7.8,14.9,98,0.01,n/a,n/a,-99.99,Henriksen +1-Wire,2013-03-06 18:24:00,
2013-03-06 13:30:00,34.9,34.1,30.11,East,96,5.2,15.4,97,0.01,n/a,n/a,-99.99,Henriksen +1-Wire,2013-03-06 18:30:00,
2013-03-06 13:35:00,35.2,34.0,30.11,East,99,7.2,15.5,95,0.01,n/a,n/a,-99.99,Henriksen +1-Wire,2013-03-06 18:35:00,
2013-03-06 13:40:00,35.4,33.5,30.11,East,94,7.7,16.9,92,0.01,n/a,n/a,-99.99,Henriksen +1-Wire,2013-03-06 18:40:00,
2013-03-06 13:46:00,35.7,32.7,30.11,East,89,6.3,16.9,88,0.01,n/a,n/a,-99.99,Henriksen +1-Wire,2013-03-06 18:46:00,
2013-03-06 13:52:00,36.0,31.9,30.11,East,101,10.6,17.3,84,0.01,n/a,n/a,-99.99,Henriksen +1-Wire,2013-03-06 18:52:00,
2013-03-06 13:57:00,36.3,31.2,30.11,ESE,103,9.0,18.2,81,0.01,n/a,n/a,-99.99,Henriksen +1-Wire,2013-03-06 18:57:00,
2013-03-06 14:02:00,36.6,31.0,30.11,ESE,109,7.2,22.8,79,0.01,n/a,n/a,-99.99,Henriksen +1-Wire,2013-03-06 19:02:00,
2013-03-06 14:07:00,36.7,30.6,30.11,East,91,8.9,22.8,78,0.00,n/a,n/a,-99.99,Henriksen +1-Wire,2013-03-06 19:07:00,
2013-03-06 14:12:00,36.9,30.5,30.11,East,93,8.5,15.4,77,0.00,n/a,n/a,-99.99,Henriksen +1-Wire,2013-03-06 19:12:00,
2013-03-06 14:17:00,37.0,30.4,30.11,East,90,6.1,15.4,77,0.00,n/a,n/a,-99.99,Henriksen +1-Wire,2013-03-06 19:17:00,
2013-03-06 14:23:00,37.2,30.5,30.11,East,93,6.2,15.2,76,0.00,n/a,n/a,-99.99,Henriksen +1-Wire,2013-03-06 19:23:00,
2013-03-06 14:28:00,37.3,30.4,30.11,East,93,9.2,15.9,76,0.00,n/a,n/a,-99.99,Henriksen +1-Wire,2013-03-06 19:28:00,
2013-03-06 14:33:00,37.3,30.3,30.11,ENE,70,7.0,15.9,75,0.00,n/a,n/a,-99.99,Henriksen +1-Wire,2013-03-06 19:33:00,
2013-03-06 16:37:00,35.9,30.0,30.12,East,82,7.2,17.4,78,0.00,n/a,n/a,-99.99,Henriksen +1-Wire,2013-03-06 21:37:00,
2013-03-06 16:43:00,35.9,29.9,30.12,East,80,6.0,16.0,78,0.00,n/a,n/a,-99.99,Henriksen +1-Wire,2013-03-06 21:43:00,
2013-03-06 16:48:00,35.9,29.8,30.12,East,80,7.8,15.7,78,0.00,n/a,n/a,-99.99,Henriksen +1-Wire,2013-03-06 21:48:00,
2013-03-06 16:53:00,35.9,29.9,30.12,East,81,7.3,15.7,78,0.00,n/a,n/a,-99.99,Henriksen +1-Wire,2013-03-06 21:53:00,
2013-03-06 16:58:00,35.9,30.0,30.12,East,85,7.5,15.8,78,0.00,n/a,n/a,-99.99,Henriksen +1-Wire,2013-03-06 21:58:00,
2013-03-06 17:03:00,35.8,29.9,30.12,ENE,60,6.5,15.8,78,0.00,n/a,n/a,-99.99,Henriksen +1-Wire,2013-03-06 22:03:00,
2013-03-06 17:08:00,35.6,30.0,30.12,ENE,72,7.2,12.6,80,0.00,n/a,n/a,-99.99,Henriksen +1-Wire,2013-03-06 22:08:00,
2013-03-06 17:13:00,35.6,30.5,30.12,East,85,6.6,14.2,81,0.00,n/a,n/a,-99.99,Henriksen +1-Wire,2013-03-06 22:13:00,
2013-03-06 17:19:00,35.8,30.7,30.11,East,83,6.9,15.5,81,0.00,n/a,n/a,-99.99,Henriksen +1-Wire,2013-03-06 22:19:00,
2013-03-06 17:24:00,35.8,30.3,30.12,East,83,9.9,15.8,80,0.00,n/a,n/a,-99.99,Henriksen +1-Wire,2013-03-06 22:24:00,
2013-03-06 17:29:00,35.5,30.0,30.12,East,79,8.9,16.5,80,0.00,n/a,n/a,-99.99,Henriksen +1-Wire,2013-03-06 22:29:00,
2013-03-06 17:34:00,35.2,30.6,30.12,ENE,68,8.9,16.5,83,0.00,n/a,n/a,-99.99,Henriksen +1-Wire,2013-03-06 22:34:00,
2013-03-06 17:39:00,34.9,31.1,30.12,ENE,71,9.5,17.0,86,0.00,n/a,n/a,-99.99,Henriksen +1-Wire,2013-03-06 22:39:00,
2013-03-06 17:44:00,34.8,31.6,30.12,ENE,72,7.5,17.0,88,0.00,n/a,n/a,-99.99,Henriksen +1-Wire,2013-03-06 22:44:00,
2013-03-06 17:49:00,34.6,32.0,30.13,ENE,69,8.2,15.7,90,0.00,n/a,n/a,-99.99,Henriksen +1-Wire,2013-03-06 22:49:00,
2013-03-06 17:54:00,34.3,32.2,30.13,ENE,66,8.0,13.7,91,0.00,n/a,n/a,-99.99,Henriksen +1-Wire,2013-03-06 22:54:00,
2013-03-06 17:59:00,34.1,32.3,30.14,ENE,73,7.7,15.6,92,0.00,n/a,n/a,-99.99,Henriksen +1-Wire,2013-03-06 22:59:00,
2013-03-06 18:05:00,33.9,32.5,30.14,ENE,64,10.2,15.9,94,0.00,n/a,n/a,-99.99,Henriksen +1-Wire,2013-03-06 23:05:00,
2013-03-06 18:10:00,33.6,32.4,30.14,ENE,66,8.3,15.9,95,0.00,n/a,n/a,-99.99,Henriksen +1-Wire,2013-03-06 23:10:00,
2013-03-06 18:16:00,33.4,32.4,30.14,ENE,70,9.4,16.3,96,0.00,n/a,n/a,-99.99,Henriksen +1-Wire,2013-03-06 23:16:00,
2013-03-06 18:21:00,33.3,32.4,30.13,ENE,59,8.7,16.3,96,0.00,n/a,n/a,-99.99,Henriksen +1-Wire,2013-03-06 23:21:00,
2013-03-06 18:26:00,33.1,32.4,30.13,ENE,68,11.9,17.3,97,0.01,n/a,n/a,-99.99,Henriksen +1-Wire,2013-03-06 23:26:00,
2013-03-06 18:32:00,32.9,32.3,30.14,ENE,59,9.3,17.3,97,0.01,n/a,n/a,-99.99,Henriksen +1-Wire,2013-03-06 23:32:00,
2013-03-06 18:38:00,32.9,32.4,30.14,ENE,67,10.0,16.5,98,0.01,n/a,n/a,-99.99,Henriksen +1-Wire,2013-03-06 23:38:00,
2013-03-06 18:43:00,32.9,32.5,30.14,ENE,69,8.4,16.5,98,0.01,n/a,n/a,-99.99,Henriksen +1-Wire,2013-03-06 23:43:00,
2013-03-06 18:48:00,32.8,32.4,30.14,ENE,68,10.6,17.1,98,0.01,n/a,n/a,-99.99,Henriksen +1-Wire,2013-03-06 23:48:00,
2013-03-06 18:53:00,32.8,32.4,30.13,ENE,58,11.7,17.1,98,0.01,n/a,n/a,-99.99,Henriksen +1-Wire,2013-03-06 23:53:00,
2013-03-06 18:58:00,32.6,32.3,30.13,ENE,66,8.0,15.9,98,0.01,n/a,n/a,-99.99,Henriksen +1-Wire,2013-03-06 23:58:00,
2013-03-06 19:03:00,32.5,32.3,30.13,ENE,72,9.2,16.8,99,0.01,n/a,n/a,-99.99,Henriksen +1-Wire,2013-03-07 00:03:00,
2013-03-06 19:08:00,32.4,32.3,30.13,ENE,74,10.5,16.8,99,0.01,n/a,n/a,-99.99,Henriksen +1-Wire,2013-03-07 00:08:00,
2013-03-06 19:13:00,32.4,32.3,30.12,ENE,75,10.9,22.0,99,0.01,n/a,n/a,-99.99,Henriksen +1-Wire,2013-03-07 00:13:00,
2013-03-06 19:18:00,32.4,32.2,30.12,ENE,74,10.3,22.0,99,0.01,n/a,n/a,-99.99,Henriksen +1-Wire,2013-03-07 00:18:00,
2013-03-06 19:23:00,32.3,32.1,30.12,East,82,10.3,21.3,99,0.00,n/a,n/a,-99.99,Henriksen +1-Wire,2013-03-07 00:23:00,
2013-03-06 19:28:00,32.4,32.2,30.12,ENE,76,12.2,23.1,99,0.00,n/a,n/a,-99.99,Henriksen +1-Wire,2013-03-07 00:28:00,
2013-03-06 19:33:00,32.5,32.3,30.12,ENE,72,10.5,23.1,99,0.00,n/a,n/a,-99.99,Henriksen +1-Wire,2013-03-07 00:33:00,
2013-03-06 19:38:00,32.5,32.3,30.13,ENE,69,8.0,15.9,99,0.00,n/a,n/a,-99.99,Henriksen +1-Wire,2013-03-07 00:38:00,
2013-03-06 19:43:00,32.3,32.2,30.12,ENE,65,10.5,16.1,99,0.00,n/a,n/a,-99.99,Henriksen +1-Wire,2013-03-07 00:43:00,
2013-03-06 19:48:00,32.2,32.1,30.12,ENE,63,11.6,20.5,99,0.00,n/a,n/a,-99.99,Henriksen +1-Wire,2013-03-07 00:48:00,
2013-03-06 19:53:00,32.2,32.1,30.12,East,80,9.2,20.5,99,0.00,n/a,n/a,-99.99,Henriksen +1-Wire,2013-03-07 00:53:00,
2013-03-06 19:59:00,32.1,32.0,30.12,ENE,72,7.8,15.4,99,0.00,n/a,n/a,-99.99,Henriksen +1-Wire,2013-03-07 00:59:00,
2013-03-06 20:04:00,32.0,32.0,30.12,ENE,75,8.6,17.2,99,0.00,n/a,n/a,-99.99,Henriksen +1-Wire,2013-03-07 01:04:00,
2013-03-06 22:06:00,31.4,23.3,30.10,ENE,64,9.4,17.4,71,0.00,n/a,n/a,-99.99,Henriksen +1-Wire,2013-03-07 03:06:00,
2013-03-06 22:11:00,31.4,24.4,30.10,East,86,9.2,17.4,74,0.00,n/a,n/a,-99.99,Henriksen +1-Wire,2013-03-07 03:11:00,
2013-03-06 22:16:00,31.4,26.5,30.10,ENE,66,9.0,17.3,81,0.00,n/a,n/a,-99.99,Henriksen +1-Wire,2013-03-07 03:16:00,
2013-03-06 22:21:00,31.4,28.6,30.10,ENE,68,7.6,17.3,89,0.00,n/a,n/a,-99.99,Henriksen +1-Wire,2013-03-07 03:21:00,
2013-03-06 22:26:00,31.4,29.6,30.10,ENE,70,8.4,14.8,92,0.00,n/a,n/a,-99.99,Henriksen +1-Wire,2013-03-07 03:26:00,
2013-03-06 22:31:00,31.4,30.3,30.10,East,82,9.5,14.2,95,0.00,n/a,n/a,-99.99,Henriksen +1-Wire,2013-03-07 03:31:00,
2013-03-06 22:36:00,31.5,30.8,30.10,ENE,72,9.7,18.9,97,0.00,n/a,n/a,-99.99,Henriksen +1-Wire,2013-03-07 03:36:00,
2013-03-06 22:41:00,31.4,31.0,30.10,ENE,78,7.6,18.9,98,0.00,n/a,n/a,-99.99,Henriksen +1-Wire,2013-03-07 03:41:00,
2013-03-06 22:46:00,31.4,31.1,30.10,ENE,70,7.8,14.0,98,0.00,n/a,n/a,-99.99,Henriksen +1-Wire,2013-03-07 03:46:00,
2013-03-06 22:52:00,31.4,31.3,30.10,ENE,73,11.1,16.5,99,0.00,n/a,n/a,-99.99,Henriksen +1-Wire,2013-03-07 03:52:00,
2013-03-06 22:57:00,31.5,31.3,30.10,ENE,62,8.9,16.5,99,0.00,n/a,n/a,-99.99,Henriksen +1-Wire,2013-03-07 03:57:00,
2013-03-06 23:02:00,31.5,31.2,30.09,ENE,64,7.0,14.9,99,0.00,n/a,n/a,-99.99,Henriksen +1-Wire,2013-03-07 04:02:00,
2013-03-06 23:07:00,31.5,31.2,30.10,ENE,66,7.3,13.4,99,0.00,n/a,n/a,-99.99,Henriksen +1-Wire,2013-03-07 04:07:00,
2013-03-06 23:12:00,31.4,31.2,30.10,NE,55,6.4,11.8,99,0.00,n/a,n/a,-99.99,Henriksen +1-Wire,2013-03-07 04:12:00,
2013-03-06 23:17:00,31.4,31.3,30.10,ENE,62,9.0,13.8,99,0.00,n/a,n/a,-99.99,Henriksen +1-Wire,2013-03-07 04:17:00,
2013-03-06 23:22:00,31.4,31.3,30.10,ENE,65,8.1,14.4,99,0.00,n/a,n/a,-99.99,Henriksen +1-Wire,2013-03-07 04:22:00,
2013-03-06 23:27:00,31.4,31.3,30.10,ENE,64,8.8,15.0,99,0.00,n/a,n/a,-99.99,Henriksen +1-Wire,2013-03-07 04:27:00,
2013-03-06 23:32:00,31.3,31.3,30.09,NE,44,9.6,15.0,99,0.00,n/a,n/a,-99.99,Henriksen +1-Wire,2013-03-07 04:32:00,
2013-03-06 23:37:00,31.3,31.3,30.09,ENE,61,7.7,15.0,99,0.00,n/a,n/a,-99.99,Henriksen +1-Wire,2013-03-07 04:37:00,
2013-03-06 23:42:00,31.4,31.3,30.09,East,81,7.3,14.9,99,0.00,n/a,n/a,-99.99,Henriksen +1-Wire,2013-03-07 04:42:00,
2013-03-06 23:47:00,31.4,31.3,30.08,ENE,66,9.1,14.9,99,0.00,n/a,n/a,-99.99,Henriksen +1-Wire,2013-03-07 04:47:00,
2013-03-06 23:52:00,31.5,31.2,30.08,NE,45,8.2,14.9,99,0.00,n/a,n/a,-99.99,Henriksen +1-Wire,2013-03-07 04:52:00,
2013-03-06 23:57:00,31.5,31.1,30.08,ENE,61,6.2,16.5,98,0.00,n/a,n/a,-99.99,Henriksen +1-Wire,2013-03-07 04:57:00,